TimeCST,TemperatureF,Dew PointF,Humidity,Sea Level PressureIn,VisibilityMPH,Wind Direction,Wind SpeedMPH,Gust SpeedMPH,PrecipitationIn,Events,Conditions,WindDirDegrees,DateUTC
12:35 AM,55.4,26.6,33,29.94,10.0,WNW,4.6,-,N/A,,Clear,290,2012-03-01 06:35:00
12:55 AM,55.4,26.6,33,29.94,10.0,NW,9.2,-,N/A,,Clear,320,2012-03-01 06:55:00
1:15 AM,55.4,26.6,33,29.95,10.0,NW,4.6,-,N/A,,Clear,310,2012-03-01 07:15:00
1:35 AM,53.6,24.8,33,29.95,10.0,SW,3.5,-,N/A,,Clear,220,2012-03-01 07:35:00
2:15 AM,53.6,24.8,33,29.95,10.0,West,3.5,-,N/A,,Clear,280,2012-03-01 08:15:00
2:35 AM,50.0,26.6,40,29.95,10.0,Calm,Calm,-,N/A,,Clear,0,2012-03-01 08:35:00
2:55 AM,46.4,26.6,46,29.95,10.0,SW,3.5,-,N/A,,Clear,230,2012-03-01 08:55:00
3:15 AM,44.6,26.6,49,29.95,10.0,WSW,3.5,-,N/A,,Clear,240,2012-03-01 09:15:00
3:35 AM,46.4,26.6,46,29.95,10.0,Calm,Calm,-,N/A,,Clear,0,2012-03-01 09:35:00
3:55 AM,42.8,26.6,53,29.95,10.0,WSW,3.5,-,N/A,,Clear,240,2012-03-01 09:55:00
4:15 AM,44.6,26.6,49,29.96,10.0,West,3.5,-,N/A,,Clear,260,2012-03-01 10:15:00
4:35 AM,44.6,26.6,49,29.96,10.0,WSW,3.5,-,N/A,,Clear,250,2012-03-01 10:35:00
4:55 AM,44.6,26.6,49,29.96,10.0,West,3.5,-,N/A,,Clear,270,2012-03-01 10:55:00
5:15 AM,42.8,26.6,53,29.96,10.0,Calm,Calm,-,N/A,,Clear,0,2012-03-01 11:15:00
5:35 AM,42.8,26.6,53,29.96,10.0,Calm,Calm,-,N/A,,Clear,0,2012-03-01 11:35:00
5:55 AM,42.8,26.6,53,29.96,10.0,Calm,Calm,-,N/A,,Clear,0,2012-03-01 11:55:00
6:15 AM,39.2,26.6,61,29.96,10.0,SSW,3.5,-,N/A,,Clear,200,2012-03-01 12:15:00
6:35 AM,39.2,26.6,61,29.96,10.0,South,3.5,-,N/A,,Clear,170,2012-03-01 12:35:00
6:55 AM,41.0,26.6,57,29.96,10.0,South,4.6,-,N/A,,Clear,180,2012-03-01 12:55:00
7:15 AM,41.0,28.4,61,29.96,10.0,South,3.5,-,N/A,,Clear,180,2012-03-01 13:15:00
7:35 AM,46.4,32.0,57,29.97,10.0,SSE,3.5,-,N/A,,Clear,160,2012-03-01 13:35:00
7:55 AM,51.8,32.0,47,29.98,10.0,Calm,Calm,-,N/A,,Clear,0,2012-03-01 13:55:00
8:15 AM,53.6,32.0,44,29.98,10.0,Calm,Calm,-,N/A,,Clear,0,2012-03-01 14:15:00
8:35 AM,55.4,30.2,38,29.98,10.0,Calm,Calm,-,N/A,,Clear,0,2012-03-01 14:35:00
8:55 AM,57.2,32.0,38,29.99,10.0,Calm,Calm,-,N/A,,Clear,0,2012-03-01 14:55:00
9:15 AM,59.0,30.2,34,29.98,10.0,SSW,3.5,-,N/A,,Clear,200,2012-03-01 15:15:00
10:15 AM,62.6,30.2,30,29.98,10.0,SSE,5.8,-,N/A,,Clear,160,2012-03-01 16:15:00
10:35 AM,62.6,30.2,30,29.97,10.0,SSE,5.8,-,N/A,,Clear,160,2012-03-01 16:35:00
10:55 AM,62.6,28.4,27,29.96,10.0,SSE,3.5,-,N/A,,Clear,150,2012-03-01 16:55:00
11:15 AM,64.4,30.2,28,29.95,10.0,SSE,6.9,-,N/A,,Clear,160,2012-03-01 17:15:00
12:15 PM,66.2,30.2,26,29.91,10.0,SSE,4.6,-,N/A,,Clear,160,2012-03-01 18:15:00
12:35 PM,66.2,30.2,26,29.90,10.0,SE,3.5,-,N/A,,Clear,140,2012-03-01 18:35:00
12:55 PM,68.0,32.0,26,29.89,10.0,South,3.5,-,N/A,,Clear,170,2012-03-01 18:55:00
1:15 PM,68.0,30.2,24,29.87,10.0,SE,9.2,-,N/A,,Clear,140,2012-03-01 19:15:00
1:35 PM,69.8,32.0,25,29.86,10.0,SE,8.1,-,N/A,,Clear,140,2012-03-01 19:35:00
1:55 PM,69.8,30.2,23,29.85,10.0,SE,6.9,-,N/A,,Clear,140,2012-03-01 19:55:00
2:15 PM,71.6,30.2,22,29.85,10.0,South,9.2,-,N/A,,Clear,190,2012-03-01 20:15:00
2:35 PM,71.6,32.0,23,29.84,10.0,South,6.9,-,N/A,,Clear,190,2012-03-01 20:35:00
2:55 PM,71.6,30.2,22,29.83,10.0,SSE,5.8,-,N/A,,Clear,160,2012-03-01 20:55:00
3:15 PM,71.6,30.2,22,29.83,10.0,SSW,5.8,-,N/A,,Clear,200,2012-03-01 21:15:00
3:35 PM,71.6,32.0,23,29.81,10.0,SSE,8.1,-,N/A,,Clear,150,2012-03-01 21:35:00
3:55 PM,69.8,30.2,23,29.80,10.0,South,9.2,-,N/A,,Clear,170,2012-03-01 21:55:00
4:15 PM,71.6,30.2,22,29.80,10.0,SSE,8.1,-,N/A,,Clear,160,2012-03-01 22:15:00
4:55 PM,69.8,30.2,23,29.78,10.0,SSE,8.1,-,N/A,,Clear,150,2012-03-01 22:55:00
5:35 PM,64.4,33.8,32,29.76,10.0,SE,4.6,-,N/A,,Clear,140,2012-03-01 23:35:00
5:55 PM,64.4,32.0,30,29.76,10.0,SE,6.9,-,N/A,,Clear,140,2012-03-01 23:55:00
6:15 PM,62.6,32.0,32,29.75,10.0,SE,8.1,-,N/A,,Clear,140,2012-03-02 00:15:00
6:35 PM,62.6,32.0,32,29.74,10.0,SE,8.1,-,N/A,,Clear,140,2012-03-02 00:35:00
6:55 PM,62.6,32.0,32,29.74,10.0,SE,8.1,-,N/A,,Clear,140,2012-03-02 00:55:00
7:15 PM,60.8,32.0,34,29.73,10.0,SE,8.1,-,N/A,,Clear,140,2012-03-02 01:15:00
7:35 PM,62.6,32.0,32,29.73,10.0,SE,6.9,-,N/A,,Clear,140,2012-03-02 01:35:00
7:55 PM,62.6,33.8,34,29.73,10.0,SSE,6.9,-,N/A,,Clear,150,2012-03-02 01:55:00
8:15 PM,60.8,33.8,36,29.73,10.0,South,4.6,-,N/A,,Clear,170,2012-03-02 02:15:00
8:35 PM,62.6,33.8,34,29.73,10.0,SSE,8.1,-,N/A,,Clear,160,2012-03-02 02:35:00
8:55 PM,62.6,33.8,34,29.73,10.0,SSE,8.1,-,N/A,,Clear,160,2012-03-02 02:55:00
9:15 PM,62.6,35.6,37,29.72,10.0,SSE,9.2,-,N/A,,Clear,160,2012-03-02 03:15:00
9:35 PM,62.6,37.4,39,29.72,10.0,South,8.1,-,N/A,,Clear,170,2012-03-02 03:35:00
9:55 PM,62.6,37.4,39,29.71,10.0,SSE,11.5,17.3,N/A,,Clear,160,2012-03-02 03:55:00
10:15 PM,62.6,39.2,42,29.71,10.0,SSE,6.9,-,N/A,,Clear,160,2012-03-02 04:15:00
10:35 PM,62.6,39.2,42,29.71,10.0,SSE,8.1,-,N/A,,Clear,160,2012-03-02 04:35:00
10:55 PM,62.6,39.2,42,29.70,10.0,SSE,8.1,-,N/A,,Scattered Clouds,150,2012-03-02 04:55:00
11:15 PM,62.6,41.0,45,29.70,10.0,SSE,8.1,-,N/A,,Mostly Cloudy,150,2012-03-02 05:15:00
11:55 PM,62.6,42.8,48,29.69,10.0,SE,8.1,-,N/A,,Mostly Cloudy,140,2012-03-02 05:55:00